Regional Weather Roundup
Issued by NWS Upton, NY

Current Version | Previous Version | Text Only | Print | Product List | Glossary On
Versions: 1 2 3 4 5 6 7 8 9 10 11 12 13 14 15 16 17 18 19 20 21 22 23 24 25 26 27 28 29 30 31 32 33 34 35 36 37 38 39 40 41 42 43 44 45 46 47 48 49 50
000
ASUS41 KOKX 171905
RWROKX

REGIONAL WEATHER ROUNDUP
NATIONAL WEATHER SERVICE NEW YORK NY
300 PM EDT WED SEP 17 2014

NOTE: "FAIR" INDICATES FEW OR NO CLOUDS BELOW 12,000 FEET WITH NO
SIGNIFICANT WEATHER AND/OR OBSTRUCTIONS TO VISIBILITY.

NYZ071-072-176-178-NJZ106-104-172000-
NEW YORK CITY METRO AREA


CITY           SKY/WX    TMP DP  RH WIND       PRES   REMARKS
CENTRAL PARK   SUNNY     71  41  33 CALM      30.00F
LAGUARDIA APRT MOSUNNY   71  41  33 CALM      29.97F
KENNEDY INTL   MOSUNNY   72  43  35 SW10      29.99F
NEWARK/LIBERTY MOSUNNY   74  42  31 W6        29.97F
BRNX BOT. GARD   N/A     70  43  37 NW3       29.98F
TETERBORO      SUNNY     75  40  28 VRB6      29.96F
$$

NYZ177-179-078>081-172000-
LONG ISLAND NEW YORK

CITY           SKY/WX    TMP DP  RH WIND       PRES   REMARKS
FARMINGDALE    SUNNY     72  41  32 N8        29.98F
ISLIP          MOSUNNY   71  43  36 N7        29.97F
SHIRLEY        SUNNY     70  40  33 VRB6      29.99F
WESTHAMPTON    SUNNY     69  45  41 S8        30.00F
MONTAUK POINT    N/A     70  41  34 W7        29.99F
$$

NYZ052-065-067-172000-
HUDSON VALLEY

CITY           SKY/WX    TMP DP  RH WIND       PRES   REMARKS
WHITE PLAINS   MOSUNNY   69  41  36 NW10      29.98F
NEWBURGH       MOSUNNY   64  46  52 NW7       30.00F
MONTGOMERY     MOSUNNY   67  42  40 NW6       29.98F
POUGHKEEPSIE   MOSUNNY   69  44  40 SW6       29.97F
ALBANY         MOSUNNY   68  44  42 W6        29.98F
$$

NJZ001-105-106-008-010-013-015-019>022-104-172000-
NEW JERSEY

CITY           SKY/WX    TMP DP  RH WIND       PRES   REMARKS
NEWARK/LIBERTY MOSUNNY   74  42  31 W6        29.97F
TETERBORO      SUNNY     75  40  28 VRB6      29.96F
CALDWELL       SUNNY     70  40  33 CALM      29.98F
MORRISTOWN     PTSUNNY   72  43  35 W9        29.99F
SOMERVILLE     SUNNY     70  43  37 VRB3      29.96F
LINDEN         FAIR      76  45  33 N6        29.99F
SUSSEX         SUNNY     69  42  37 CALM      29.98F
ANDOVER          N/A     66  43  43 CALM      29.99F
TRENTON        SUNNY     72  43  35 VRB3      29.98F
MILLVILLE      MOSUNNY   73  45  36 CALM      29.97F
ATLANTIC CITY  MOSUNNY   72  55  55 SE7       29.98F
WRIGHTSTOWN    MOSUNNY   73  47  40 NW6       29.96F
TOMS RIVER     PTSUNNY   70  50  49 CALM      29.99F
BELMAR         PTSUNNY   70  48  46 SE9       29.99F
$$

PAZ047>061-062-071-172000-
EASTERN PENNSYLVANIA

CITY           SKY/WX    TMP DP  RH WIND       PRES   REMARKS
PHILADELPHIA   MOSUNNY   73  47  39 S7        29.98F
ALLENTOWN      PTSUNNY   69  44  40 CALM      29.99F
SCRANTON       PTSUNNY   68  42  38 SW6       29.98F
$$

CTZ002-004>006-009-010-012-RIZ004-006-007-MAZ004-011-015-172000-
SOUTHERN NEW ENGLAND
 IN CT

CITY           SKY/WX    TMP DP  RH WIND       PRES   REMARKS
BRADLEY INTL   MOSUNNY   72  41  32 W6G16     29.96F
HARTFORD       SUNNY     70  42  36 W7        29.96F
DANBURY        MOSUNNY   65  41  41 CALM      30.00F
WTRBRY/OXFORD  MOSUNNY   66  45  45 VRB6      29.99F
BRIDGEPORT     SUNNY     70  48  45 SW13      29.98F
MERIDEN        PTSUNNY   71  42  35 CALM      29.97F
NEW HAVEN      SUNNY     70  47  43 S10       29.98F
CHESTER        FAIR      70  43  37 W6        29.98F
GROTON         SUNNY     68  47  46 SW13      29.96F
WILLIMANTIC    SUNNY     70  43  37 NW8       29.97F

 IN RI

CITY           SKY/WX    TMP DP  RH WIND       PRES   REMARKS
PROVIDENCE     MOSUNNY   71  46  40 S6        29.96F
BLOCK ISLAND   SUNNY     70  39  32 SW9       29.99S
WESTERLY       SUNNY     70  45  40 VRB7      29.98S

 IN MA

CITY           SKY/WX    TMP DP  RH WIND       PRES   REMARKS
BOSTON         MOSUNNY   67  50  54 SE14      29.95F
WORCESTER      MOSUNNY   64  41  42 W7        29.98F
WESTFIELD      PTSUNNY   70  42  36 W10       29.97F
PROVINCETOWN   SUNNY     66  54  63 N5        29.97S
NANTUCKET      SUNNY     68  56  65 S12       29.98S
$$

ANZ330-335-338-340-345-350-353-355-172000-
COASTAL MARINE OBSERVATIONS


STATION/POSITION TIME  SKY/WX   TEMP    WIND        PRES    VSBY  WAVE
                                AIR SEA DIR/SP/G                  HT/PER
                 (UTC)          (F)     (DEG/KT/KT) (MB)    (MI)  (FT/S)
NY HARB ENTRANCE NOT AVBL
4S FIRE IS       NOT AVBL
23SW MTP         1900                                 N/A           4/14
HUDSON CANYON    1900            66 74  360/  8/ 12 1015.2          4/14
EXECUTION ROCKS  1900            69 73  160/  2/  4   N/A
WESTERN LI SOUND 1900            67     190/  4/  6   N/A           0
CENTRAL LI SOUND 1800            65 71  200/  6/ 10   N/A           0
EASTERN LI SOUND 1800            67 69  210/  8/ 10   N/A
ROBBINS REEF     1900            68     290/  5/  6 1013.9
$$


>>>>>>>>>>>>>>>>>>>>>>>>>>>> KEY <<<<<<<<<<<<<<<<<<<<<<<<<<<
>                                                          <
>     SKY/WX - SKY CONDITION/PRESENT WEATHER               <
>     TMP    - TEMPERATURE IN FAHRENHEIT                   <
>     DP     - DEWPOINT IN FAHRENHEIT                      <
>     RH     - RELATIVE HUMIDITY IN PERCENT                <
>     WIND   - DIRECTION AND SPEED IN MPH                  <
>     PRES   - MEAN SEA LEVEL PRESSURE IN INCHES OF HG     <
>     WCI    - WIND CHILL INDEX                            <
>     VSB    - VISIBILITY IN MILES                         <
>     HX     - HEAT INDEX                                  <
>     TC     - TEMPERATURE IN CELSIUS                      <
>     VRB    - VARIABLE WIND DIRECTION                     <
>                                                          <
>>>>>>>>>>>>>>>>>>>>>>>>>>>> KEY <<<<<<<<<<<<<<<<<<<<<<<<<<<





USA.gov is the U.S. government's official web portal to all federal, state and local government web resources and services.